Regional Weather Roundup
Issued by NWS Burlington, VT

Home | Current Version | Previous Version | Text Only | Print | Product List | Glossary On
Versions: 1 2 3 4 5 6 7 8 9 10 11 12 13 14 15 16 17 18 19 20 21 22 23 24 25 26 27 28 29 30 31 32 33 34 35 36 37 38 39 40 41 42 43 44 45 46 47 48 49 50
000
ASUS41 KBTV 010810
RWRBTV
VERMONT REGIONAL WEATHER ROUNDUP
NATIONAL WEATHER SERVICE BURLINGTON VT
400 AM EDT SAT AUG 01 2015

NOTE: "FAIR" INDICATES FEW OR NO CLOUDS BELOW 12,000 FEET WITH NO
SIGNIFICANT WEATHER AND/OR OBSTRUCTIONS TO VISIBILITY.

* THESE REPORTS ARE NOT UNDER NWS QUALITY CONTROL AND/OR DO NOT
  REPORT WEATHER SUCH AS PRECIPITATION AND FOG.

VTZ001>019-010900-
_____VERMONT_____


CITY           SKY/WX    TMP DP  RH WIND       PRES   REMARKS
BURLINGTON     CLOUDY    68  57  68 S6        29.70F
MONTPELIER     CLOUDY    63  59  87 S6        29.76F
MORRISVILLE    MOCLDY    63  58  83 CALM      29.74F
ST. JOHNSBURY*   N/A     58  55  90 MISG      29.72F
LYNDONVILLE*   FAIR      58  56  95 CALM      29.76S
MIDDLEBURY*    FAIR      65  61  88 S6        29.73F
SPRINGFIELD    CLEAR     57  56  96 CALM      29.77S
HIGHGATE*      FAIR      65  59  80 S3        29.68F
NEWPORT*       CLOUDY    61  58  89 S5        29.73F
BENNINGTON     MOCLDY    58  56  93 CALM      29.77S

_____LAKE CHAMPLAIN_____


CITY           SKY/WX    TMP DP  RH WIND       PRES   REMARKS

$$

NYZ007-026>031-035-052-083-010900-
_____NORTHERN NEW YORK_____


CITY           SKY/WX    TMP DP  RH WIND       PRES   REMARKS
PLATTSBURGH    CLOUDY    68  57  68 VRB5      29.69F
SARANAC LAKE   CLOUDY    58  58 100 SW5       29.76R
MASSENA        CLOUDY    65  59  81 SW8       29.71R
OGDENSBURG*    CLEAR     64  63  94 SW6       29.71S
POTSDAM*       LGT RAIN  64  63  94 SW12      29.72S
WATERTOWN      LGT RAIN  65  63  93 SW3       29.74S
FT DRUM        CLOUDY    64  63  94 SW7       29.74F
ALBANY         MOCLDY    65  58  78 CALM      29.75F
GLENS FALLS    PTCLDY    62  60  93 W5        29.74F

$$
NHZ002-005-011-010900-
_____NEW HAMPSHIRE_____


CITY           SKY/WX    TMP DP  RH WIND       PRES   REMARKS
LEBANON        MOCLDY    58  55  90 CALM      29.75S
KEENE          MOCLDY    59  54  82 CALM      29.77F
MT WASHINGTON  MOCLDY    46  46  99 W37         N/A
PLYMOUTH       FOG       56  56 100 CALM      29.76S VSB 1
WHITEFIELD     CLEAR     53  50  89 CALM      29.75F

$$

_____REGIONAL QUEBEC LOCATIONS_____


CITY           SKY/WX    TMP DP  RH WIND       PRES   REMARKS
MONTREAL       PTCLDY    66  61  82 W7        29.67S
QUEBEC CITY    MOCLDY    59  59 100 SW3       29.66S
SHERBROOKE     CLOUDY    61  59  94 CALM      29.69F

_____REGIONAL ONTARIO LOCATIONS_____


CITY           SKY/WX    TMP DP  RH WIND       PRES   REMARKS
OTTAWA         PTCLDY    59  57  94 W7        29.70S

______KEY______
VSB  - VISIBILITY IN MILES
WCI  - WIND CHILL INDEX
HX   - HEAT INDEX
$$
NNNN


USA.gov is the U.S. government's official web portal to all federal, state and local government web resources and services.